Weather History for Eastsound, WA

Change the Weather History Date:

Monday, August 26, 2013

  Actual Average (KBLI) Record (KBLI)
Temperature  
Mean Temperature 64 °F 61 °F  
Max Temperature 71 °F 71 °F 84 °F (2014)
Min Temperature 57 °F 52 °F 42 °F (1949)
Degree Days  
Heating Degree Days 1 4  
Month to date heating degree days 60  
Since 1 June heating degree days 362  
Cooling Degree Days 0 0  
Month to date cooling degree days 0  
Year to date cooling degree days 23  
Since 1 June cooling degree days 23  
Growing Degree Days 14 (Base 50)    
Moisture  
Dew Point 53 °F    
Average Humidity 71    
Maximum Humidity 82    
Minimum Humidity 56    
Precipitation  
Precipitation 0.00 in 0.04 in 0.60 in (1960)
Month to date precipitation 0.98  
Year to date precipitation 20.10  
Sea Level Pressure  
Sea Level Pressure 29.85 in    
Wind  
Wind Speed 7 mph (South)    
Max Wind Speed 15 mph    
Max Gust Speed 23 mph    
Visibility 10 miles    
Events Rain    
T = Trace of Precipitation, MM = Missing Value Source: NWS Daily Summary

Daily Weather History Graph

Daily Weather History Graph

Search for Another Location

Airport:

Trip Planner

Search our weather history database for the weather conditions in past years. The results will help you decide how hot, cold, wet, or windy it might be!

Date:

Astronomy

Aug. 26, 2013 Rise Set
Actual Time 6:20 AM PDT 8:04 PM PDT
Civil Twilight 5:47 AM PDT 8:38 PM PDT
Nautical Twilight 5:06 AM PDT 9:18 PM PDT
Astronomical Twilight 4:21 AM PDT 10:03 PM PDT
Moon 10:43 PM PDT (8/26) 1:02 PM PDT (8/26)
Length of Visible Light 14h 50m
Length of Day
13h 44m
Waning Gibbous, 65% of the Moon is Illuminated
Aug 26
Waning Gibbous
Aug 28
Last Quarter
Sep 5
New
Sep 12
First Quarter
Sep 19
Full

Hourly Weather History & Observations

Time (PDT) Temp. Dew Point Humidity Pressure Visibility Wind Dir Wind Speed Gust Speed Precip Events Conditions
12:15 AM 59.0 °F 48.2 °F 67% 29.84 in 10.0 mi South 8.1 mph - N/A   Clear
12:35 AM 59.0 °F 48.2 °F 67% 29.84 in 10.0 mi South 6.9 mph - N/A   Partly Cloudy
12:55 AM 59.0 °F 50.0 °F 72% 29.85 in 10.0 mi South 9.2 mph - N/A   Scattered Clouds
1:15 AM 59.0 °F 50.0 °F 72% 29.85 in 10.0 mi South 11.5 mph - N/A   Mostly Cloudy
1:35 AM 59.0 °F 50.0 °F 72% 29.85 in 10.0 mi South 9.2 mph - N/A   Overcast
1:55 AM 57.2 °F 50.0 °F 77% 29.85 in 10.0 mi South 8.1 mph - N/A   Mostly Cloudy
2:15 AM 57.2 °F 50.0 °F 77% 29.85 in 10.0 mi South 8.1 mph - N/A   Scattered Clouds
2:35 AM 59.0 °F 50.0 °F 72% 29.85 in 10.0 mi South 9.2 mph - N/A   Mostly Cloudy
2:55 AM 59.0 °F 50.0 °F 72% 29.86 in 10.0 mi South 11.5 mph - N/A   Mostly Cloudy
3:15 AM 59.0 °F 50.0 °F 72% 29.86 in 10.0 mi South 8.1 mph - N/A   Mostly Cloudy
3:35 AM 59.0 °F 50.0 °F 72% 29.86 in 10.0 mi South 6.9 mph - N/A   Overcast
3:55 AM 59.0 °F 48.2 °F 67% 29.86 in 10.0 mi South 8.1 mph - N/A   Overcast
4:15 AM 57.2 °F 48.2 °F 72% 29.87 in 10.0 mi South 5.8 mph - N/A   Mostly Cloudy
4:35 AM 57.2 °F 50.0 °F 77% 29.86 in 10.0 mi South 3.5 mph - N/A   Partly Cloudy
4:55 AM 57.2 °F 50.0 °F 77% 29.86 in 10.0 mi South 5.8 mph - N/A   Clear
5:15 AM 57.2 °F 50.0 °F 77% 29.86 in 10.0 mi South 5.8 mph - N/A   Clear
5:35 AM 57.2 °F 48.2 °F 72% 29.86 in 10.0 mi South 6.9 mph - N/A   Clear
5:55 AM 57.2 °F 48.2 °F 72% 29.87 in 10.0 mi South 8.1 mph - N/A   Clear
6:15 AM 57.2 °F 48.2 °F 72% 29.87 in 10.0 mi South 6.9 mph - N/A   Clear
6:35 AM 57.2 °F 48.2 °F 72% 29.87 in 10.0 mi SSE 4.6 mph - N/A   Clear
6:55 AM 57.2 °F 48.2 °F 72% 29.88 in 10.0 mi SSE 3.5 mph - N/A   Clear
7:15 AM 57.2 °F 48.2 °F 72% 29.88 in 10.0 mi SE 3.5 mph - N/A   Clear
7:35 AM 57.2 °F 50.0 °F 77% 29.87 in 10.0 mi Calm Calm - N/A   Clear
7:55 AM 59.0 °F 50.0 °F 72% 29.87 in 10.0 mi Calm Calm - N/A   Clear
8:15 AM 60.8 °F 53.6 °F 77% 29.88 in 10.0 mi South 4.6 mph - N/A   Clear
8:35 AM 60.8 °F 53.6 °F 77% 29.88 in 10.0 mi Calm Calm - N/A   Partly Cloudy
8:55 AM 62.6 °F 53.6 °F 72% 29.87 in 10.0 mi South 6.9 mph - N/A   Partly Cloudy
9:15 AM 62.6 °F 53.6 °F 72% 29.87 in 10.0 mi SSE 3.5 mph - N/A   Mostly Cloudy
9:35 AM 62.6 °F 53.6 °F 72% 29.87 in 10.0 mi Calm Calm - N/A   Overcast
9:55 AM 62.6 °F 53.6 °F 72% 29.87 in 10.0 mi South 6.9 mph - N/A   Overcast
10:15 AM 62.6 °F 55.4 °F 77% 29.87 in 10.0 mi Calm Calm - N/A   Overcast
10:35 AM 60.8 °F 53.6 °F 77% 29.87 in 10.0 mi North 5.8 mph - N/A   Overcast
10:55 AM 57.2 °F 51.8 °F 82% 29.87 in 10.0 mi Calm Calm - N/A   Mostly Cloudy
11:15 AM 59.0 °F 53.6 °F 82% 29.86 in 10.0 mi Calm Calm - N/A   Mostly Cloudy
11:35 AM 60.8 °F 53.6 °F 77% 29.86 in 10.0 mi North 3.5 mph - N/A   Mostly Cloudy
11:55 AM 59.0 °F 53.6 °F 82% 29.85 in 10.0 mi Calm Calm - N/A   Scattered Clouds
12:15 PM 62.6 °F 55.4 °F 77% 29.85 in 10.0 mi Calm Calm - N/A   Partly Cloudy
12:35 PM 64.4 °F 55.4 °F 73% 29.84 in 10.0 mi Calm Calm - N/A   Clear
12:55 PM 64.4 °F 55.4 °F 73% 29.84 in 10.0 mi Calm Calm - N/A   Partly Cloudy
1:15 PM 69.8 °F 55.4 °F 60% 29.84 in 10.0 mi South 8.1 mph - N/A   Partly Cloudy
1:35 PM 68.0 °F 55.4 °F 64% 29.83 in 10.0 mi South 6.9 mph - N/A   Partly Cloudy
1:55 PM 69.8 °F 55.4 °F 60% 29.83 in 10.0 mi South 4.6 mph - N/A   Clear
2:15 PM 69.8 °F 55.4 °F 60% 29.82 in 10.0 mi SSW 6.9 mph - N/A   Clear
2:35 PM 71.6 °F 55.4 °F 57% 29.82 in 10.0 mi South 4.6 mph - N/A   Clear
2:55 PM 71.6 °F 55.4 °F 57% 29.82 in 10.0 mi South 6.9 mph - N/A   Clear
3:15 PM 71.6 °F 55.4 °F 57% 29.81 in 10.0 mi South 8.1 mph - N/A   Clear
3:35 PM 71.6 °F 55.4 °F 57% 29.81 in 10.0 mi South 8.1 mph - N/A   Clear
3:55 PM 69.8 °F 55.4 °F 60% 29.82 in 10.0 mi SSW 10.4 mph - N/A   Clear
4:15 PM 69.8 °F 53.6 °F 56% 29.82 in 10.0 mi SSE 4.6 mph - N/A   Clear
4:35 PM 68.0 °F 53.6 °F 60% 29.81 in 10.0 mi South 6.9 mph - N/A   Clear
4:55 PM 66.2 °F 53.6 °F 64% 29.82 in 10.0 mi South 8.1 mph - N/A Rain Light Rain
5:15 PM 68.0 °F 53.6 °F 60% 29.82 in 10.0 mi SSW 9.2 mph - N/A   Clear
5:35 PM 68.0 °F 51.8 °F 56% 29.83 in 10.0 mi South 11.5 mph - N/A   Clear
5:55 PM 66.2 °F 53.6 °F 64% 29.83 in 10.0 mi South 4.6 mph - N/A Rain Light Rain
6:15 PM 66.2 °F 53.6 °F 64% 29.84 in 10.0 mi South 9.2 mph - N/A   Clear
6:35 PM 64.4 °F 53.6 °F 68% 29.85 in 10.0 mi South 9.2 mph - N/A   Clear
6:55 PM 64.4 °F 53.6 °F 68% 29.85 in 10.0 mi South 6.9 mph - N/A   Partly Cloudy
7:15 PM 62.6 °F 55.4 °F 77% 29.86 in 9.0 mi South 6.9 mph - N/A Rain Light Rain
7:35 PM 60.8 °F 55.4 °F 82% 29.86 in 10.0 mi South 6.9 mph - N/A   Clear
7:55 PM 60.8 °F 53.6 °F 77% 29.86 in 10.0 mi SSE 4.6 mph - N/A   Clear
8:15 PM 60.8 °F 53.6 °F 77% 29.86 in 10.0 mi Calm Calm - N/A   Scattered Clouds
8:35 PM 62.6 °F 53.6 °F 72% 29.85 in 10.0 mi South 3.5 mph - N/A   Partly Cloudy
8:55 PM 64.4 °F 53.6 °F 68% 29.86 in 10.0 mi South 4.6 mph - N/A   Clear
9:15 PM 64.4 °F 53.6 °F 68% 29.86 in 10.0 mi South 12.7 mph 17.3 mph N/A   Clear
9:35 PM 64.4 °F 53.6 °F 68% 29.87 in 10.0 mi South 12.7 mph 19.6 mph N/A   Clear
9:55 PM 64.4 °F 55.4 °F 73% 29.87 in 10.0 mi South 11.5 mph 19.6 mph N/A   Clear
10:15 PM 64.4 °F 55.4 °F 73% 29.87 in 10.0 mi South 15.0 mph 23.0 mph N/A   Partly Cloudy
10:35 PM 62.6 °F 55.4 °F 77% 29.87 in 10.0 mi South 11.5 mph 18.4 mph N/A   Clear
10:55 PM 62.6 °F 55.4 °F 77% 29.88 in 10.0 mi South 10.4 mph 19.6 mph N/A   Clear
11:15 PM 62.6 °F 55.4 °F 77% 29.89 in 10.0 mi South 13.8 mph 18.4 mph N/A   Clear
11:35 PM 62.6 °F 55.4 °F 77% 29.90 in 10.0 mi South 13.8 mph 19.6 mph N/A   Clear
11:55 PM 62.6 °F 55.4 °F 77% 29.90 in 10.0 mi South 12.7 mph 20.7 mph N/A   Clear